Location: Córrego Montividiu
(13.2496°S, 48.8603°W)
Time: 10:48:44
(UTC+00:00)

ATLAS 2AS CENTAUR R/B - Pass Details

Date: 11 March 2026
Orbit: 1052 x 1159 km, 63.7° (Epoch: 22 April)

Event Time Altitude Azimuth Distance (km) Brightness Sun altitude
Rises 22:35:37 0° 346° (NNW) 3,834 5.7 -16.2°
Reaches altitude 10° 22:38:15 10° 349° (N) 2,895 5.0 -16.9°
Maximum altitude 22:45:00 61° 68° (ENE) 1,229 2.7 -18.5°
Drops below altitude 10° 22:51:58 10° 147° (SSE) 2,991 4.8 -20.2°
Sets 22:54:43 0° 150° (SSE) 3,969 5.5 -20.8°
